Williamtown Air Force Base, Australia

2:57 AM AEST on September 27, 2016 (GMT +1000)
Williamtown Military

Weather History for YWLM - June, 2013

Change the Weather History Date:

Sunday, June 23, 2013

  Actual Average Record
Temperature  
Mean Temperature 52 °F -  
Max Temperature 57 °F - - ()
Min Temperature 46 °F - - ()
Degree Days  
Heating Degree Days 14    
Growing Degree Days 2 (Base 50)    
Moisture  
Dew Point 51 °F    
Average Humidity 96    
Maximum Humidity 100    
Minimum Humidity 88    
Precipitation  
Precipitation 0.31 in - - ()
Sea Level Pressure  
Sea Level Pressure 30.28 in    
Wind  
Wind Speed 6 mph ()    
Max Wind Speed 9 mph    
Max Gust Speed -    
Visibility 5.8 miles    
Events Rain    
T = Trace of Precipitation, MM = Missing Value Source: Averaged Metar Reports

Daily Weather History Graph

Daily Weather History Graph

Search for Another Location

Airport or City:

Trip Planner

Search our weather history database for the weather conditions in past years. The results will help you decide how hot, cold, wet, or windy it might be!

Date:

Astronomy

Jun. 23, 2013 Rise Set
Actual Time 6:55 AM AEST 4:54 PM AEST
Civil Twilight 6:27 AM AEST 5:21 PM AEST
Nautical Twilight 5:57 AM AEST 5:52 PM AEST
Astronomical Twilight 5:26 AM AEST 6:22 PM AEST
Moon 4:49 PM AEST (6/23) 6:09 AM AEST (6/23)
Length of Visible Light 10h 54m
Length of Day
9h 59m
Full, 100% of the Moon is Illuminated
Jun 23
Full
Jun 23
Full
Jun 30
Last Quarter
Jul 8
New
Jul 16
First Quarter

Hourly Weather History & Observations

Time (AEST) Temp. Windchill Dew Point Humidity Pressure Visibility Wind Dir Wind Speed Gust Speed Precip Events Conditions
12:00 AM 49 °F - 48 °F 97% 30.30 in - NW 6.9 mph - -   Overcast
12:00 AM 50.0 °F - 48.2 °F 94% 30.27 in 6.2 mi NW 6.9 mph - N/A   Mostly Cloudy
12:22 AM 50.0 °F - 50.0 °F 100% 30.30 in 3.7 mi WSW 3.5 mph - N/A Rain Heavy Rain Showers
12:23 AM 50.0 °F - 50.0 °F 100% 30.30 in 3.1 mi South 3.5 mph - N/A Rain Heavy Rain Showers
12:30 AM 50.0 °F - 50.0 °F 100% 30.27 in - East 1.2 mph - N/A Rain Heavy Rain Showers
12:34 AM 50.0 °F - 50.0 °F 100% 30.27 in 3.1 mi Calm Calm - N/A Rain Heavy Rain Showers
1:00 AM 50 °F - 50 °F 98% 30.29 in - WNW 5.8 mph - -  
1:00 AM 50.0 °F - 50.0 °F 100% 30.27 in 5.6 mi WNW 5.8 mph - N/A Rain Rain Showers
1:05 AM 50.0 °F - 50.0 °F 100% 30.27 in 6.2 mi West 6.9 mph - N/A Rain Rain Showers
1:17 AM 50.0 °F - 50.0 °F 100% 30.27 in 6.2 mi WNW 8.1 mph - N/A Rain Light Rain Showers
1:30 AM 50.0 °F - 50.0 °F 100% 30.27 in 6.2 mi West 9.2 mph - N/A Rain Light Rain Showers
2:00 AM 48.2 °F - 48.2 °F 100% 30.27 in 6.2 mi WNW 8.1 mph - N/A   Overcast
2:30 AM 48.2 °F - 48.2 °F 100% 30.27 in 6.2 mi WNW 6.9 mph - N/A   Mostly Cloudy
3:00 AM 47 °F - 46 °F 94% 30.28 in - WNW 5.8 mph - -  
3:00 AM 46.4 °F 43.5 °F 46.4 °F 100% 30.27 in 6.2 mi WNW 5.8 mph - N/A   Scattered Clouds
3:30 AM 46.4 °F 44.3 °F 46.4 °F 100% 30.27 in 5.6 mi WNW 4.6 mph - N/A   Mostly Cloudy
4:00 AM 48 °F - 48 °F 98% 30.27 in - West 8.1 mph - -  
4:00 AM 48.2 °F - 48.2 °F 100% 30.27 in 6.2 mi West 8.1 mph - N/A   Overcast
4:30 AM 48.2 °F - 48.2 °F 100% 30.27 in 6.2 mi WNW 8.1 mph - N/A   Overcast
5:00 AM 50.0 °F - 48.2 °F 94% 30.27 in 6.2 mi NW 4.6 mph - N/A Rain Light Rain Showers
5:08 AM 50.0 °F - 48.2 °F 94% 30.27 in 3.7 mi NW 5.8 mph - N/A Rain Rain Showers
5:30 AM 50.0 °F - 48.2 °F 94% 30.27 in 5.6 mi WNW 9.2 mph - N/A Rain Light Rain Showers
5:33 AM 50.0 °F - 48.2 °F 94% 30.30 in 6.2 mi WNW 9.2 mph - N/A Rain Light Rain Showers
5:53 AM 50.0 °F - 48.2 °F 94% 30.30 in 6.2 mi NW 6.9 mph - N/A Rain Light Rain Showers
6:00 AM 49 °F - 48 °F 96% 30.32 in 9 mi NW 6.9 mph - -   Overcast
6:00 AM 50.0 °F - 48.2 °F 94% 30.30 in 6.2 mi NW 6.9 mph - N/A   Mostly Cloudy
6:30 AM 50.0 °F - 48.2 °F 94% 30.30 in 6.2 mi NNW 6.9 mph - N/A   Mostly Cloudy
7:00 AM 50 °F - 49 °F 93% 30.32 in - West 9.2 mph - -  
7:00 AM 50.0 °F - 48.2 °F 94% 30.30 in 6.2 mi West 9.2 mph - N/A   Mostly Cloudy
7:30 AM 50.0 °F - 48.2 °F 94% 30.33 in 6.2 mi Calm Calm - N/A   Mostly Cloudy
8:00 AM 50.0 °F - 48.2 °F 94% 30.30 in 6.2 mi WNW 9.2 mph - N/A   Scattered Clouds
8:30 AM 51.8 °F - 50.0 °F 94% 30.33 in 6.2 mi West 8.1 mph - N/A   Scattered Clouds
8:45 AM 51.8 °F - 50.0 °F 94% 30.33 in 6.2 mi West 6.9 mph - N/A   Mostly Cloudy
9:00 AM 52 °F - 51 °F 93% 30.35 in 6 mi WNW 8.1 mph - -   Mostly Cloudy
9:00 AM 51.8 °F - 50.0 °F 94% 30.33 in 6.2 mi WNW 8.1 mph - N/A   Mostly Cloudy
9:30 AM 53.6 °F - 51.8 °F 94% 30.36 in 6.2 mi NW 6.9 mph - N/A   Mostly Cloudy
10:00 AM 55 °F - 53 °F 89% 30.36 in - WNW 8.1 mph - -  
10:00 AM 55.4 °F - 53.6 °F 94% 30.33 in 6.2 mi WNW 8.1 mph - N/A   Mostly Cloudy
10:30 AM 55.4 °F - 53.6 °F 94% 30.33 in 5.0 mi NW 6.9 mph - N/A Rain Light Rain Showers
11:00 AM 55.4 °F - 53.6 °F 94% 30.33 in 5.6 mi NNE 6.9 mph - N/A   Mostly Cloudy
11:30 AM 57.2 °F - 55.4 °F 94% 30.33 in 5.0 mi NW 6.9 mph - N/A Rain Light Rain Showers
12:00 PM 56 °F - 54 °F 91% 30.32 in 9 mi WNW 8.1 mph - - Rain Light Rain Showers
12:00 PM 57.2 °F - 53.6 °F 88% 30.30 in 6.2 mi WNW 8.1 mph - N/A Rain Light Rain Showers
12:15 PM 57.2 °F - 53.6 °F 88% 30.30 in 3.7 mi NNW 4.6 mph - N/A Rain Light Rain Showers
12:30 PM 55.4 °F - 55.4 °F 100% 30.30 in 3.7 mi NNW 8.1 mph - N/A Rain Light Rain Showers
1:00 PM 54 °F - 52 °F 92% 30.30 in - North 5.8 mph - -  
1:00 PM 53.6 °F - 51.8 °F 94% 30.30 in 3.1 mi North 5.8 mph - N/A Rain Rain Showers
1:14 PM 55.4 °F - 53.6 °F 94% 30.27 in 5.6 mi North 6.9 mph - N/A Rain Light Rain Showers
1:30 PM 55.4 °F - 53.6 °F 94% 30.27 in 5.6 mi North 5.8 mph - N/A Rain Light Rain Showers
2:00 PM 55.4 °F - 53.6 °F 94% 30.27 in 6.2 mi NNW 5.8 mph - N/A Rain Light Rain Showers
2:30 PM 55.4 °F - 53.6 °F 94% 30.27 in 6.2 mi WSW 8.1 mph - N/A Rain Light Rain Showers
3:00 PM 56 °F - 54 °F 90% 30.28 in 6 mi WSW 6.9 mph - - Rain Light Rain Showers
3:00 PM 57.2 °F - 53.6 °F 88% 30.27 in 6.2 mi WSW 6.9 mph - N/A Rain Light Rain Showers
3:30 PM 55.4 °F - 53.6 °F 94% 30.27 in 6.2 mi WNW 5.8 mph - N/A Rain Light Rain Showers
4:00 PM 56 °F - 55 °F 95% 30.27 in - SW 6.9 mph - -  
4:00 PM 57.2 °F - 55.4 °F 94% 30.27 in 6.2 mi SW 6.9 mph - N/A   Mostly Cloudy
4:13 PM 55.4 °F - 53.6 °F 94% 30.27 in 5.0 mi SW 8.1 mph - N/A Rain Light Rain Showers
4:15 PM 55.4 °F - 53.6 °F 94% 30.27 in 3.7 mi SSW 6.9 mph - N/A Rain Light Rain Showers
4:30 PM 55.4 °F - 53.6 °F 94% 30.24 in 4.3 mi SSW 6.9 mph - N/A Rain Light Rain Showers
4:32 PM 55.4 °F - 53.6 °F 94% 30.24 in 5.6 mi SSW 8.1 mph - N/A Rain Light Rain Showers
4:38 PM 55.4 °F - 53.6 °F 94% 30.24 in 6.2 mi WSW 6.9 mph - N/A Rain Light Rain Showers
5:00 PM 55.4 °F - 53.6 °F 94% 30.24 in 6.2 mi West 3.5 mph - N/A Rain Light Rain Showers
5:30 PM 53.6 °F - 53.6 °F 100% 30.27 in 6.2 mi West 6.9 mph - N/A Rain Light Rain Showers
6:00 PM 54 °F - 53 °F 94% 30.28 in - SW 6.9 mph - -   Overcast
6:00 PM 53.6 °F - 53.6 °F 100% 30.27 in 6.2 mi SW 6.9 mph - N/A   Mostly Cloudy
6:38 PM 53.6 °F - 51.8 °F 94% 30.27 in 6.2 mi WSW 5.8 mph - N/A   Mostly Cloudy
6:59 PM 51.8 °F - 50.0 °F 94% 30.27 in 6.2 mi West 6.9 mph - N/A   Scattered Clouds
7:00 PM 52 °F - 51 °F 95% 30.28 in - West 6.9 mph - -  
7:00 PM 51.8 °F - 51.8 °F 100% 30.27 in 6.2 mi West 6.9 mph - N/A   Scattered Clouds
7:30 PM 50.0 °F - 50.0 °F 100% 30.27 in 6.2 mi WSW 8.1 mph - N/A   Unknown
8:00 PM 50.0 °F - 50.0 °F 100% 30.27 in 6.2 mi WNW 5.8 mph - N/A   Scattered Clouds
8:30 PM 51.8 °F - 50.0 °F 94% 30.27 in 6.2 mi NW 3.5 mph - N/A   Overcast
9:00 PM 52 °F - 51 °F 95% 30.26 in - WNW 8.1 mph - -  
9:00 PM 51.8 °F - 51.8 °F 100% 30.24 in 6.2 mi WNW 8.1 mph - N/A   Overcast
9:34 PM 51.8 °F - 51.8 °F 100% 30.24 in 4.3 mi West 6.9 mph - N/A Rain Light Rain Showers
9:40 PM 51.8 °F - 51.8 °F 100% 30.24 in 3.7 mi West 6.9 mph - N/A Rain Light Rain Showers
9:57 PM 51.8 °F - 51.8 °F 100% 30.24 in 6.2 mi WSW 9.2 mph - N/A Rain Light Rain Showers
10:00 PM 52 °F - 51 °F 97% 30.25 in - West 8.1 mph - -  
10:00 PM 51.8 °F - 51.8 °F 100% 30.24 in 6.2 mi West 8.1 mph - N/A Rain Light Rain Showers
10:30 PM 51.8 °F - 51.8 °F 100% 30.24 in 6.2 mi NW 6.9 mph - N/A   Overcast
11:00 PM 51.8 °F - 51.8 °F 100% 30.24 in 6.2 mi WNW 5.8 mph - N/A   Overcast
11:29 PM 51.8 °F - 50.0 °F 94% 30.24 in 6.2 mi West 8.1 mph - N/A   Mostly Cloudy
11:30 PM 51.8 °F - 50.0 °F 94% 30.24 in 6.2 mi West 8.1 mph - N/A   Mostly Cloudy